Regional Weather Roundup
Issued by NWS Kansas City/Pleasant Hill, MO

Home | Current Version | Previous Version | Text Only | Print | Product List | Glossary On
Versions: 1 2 3 4 5 6 7 8 9 10 11 12 13 14 15 16 17 18 19 20 21 22 23 24 25 26 27 28 29 30 31 32 33 34 35 36 37 38 39 40 41 42 43 44 45 46 47 48 49 50
000
ASUS43 KEAX 101710
RWREAX

WEATHER ROUNDUP FOR EASTERN KANSAS AND NORTHWEST MISSOURI
NATIONAL WEATHER SERVICE KANSAS CITY/PLEASANT HILL MO
1100 AM CST SAT DEC 10 2016

KSZ040-057-103>105-MOZ028-029-037-043-101800-
...KANSAS CITY METROPOLITAN AREA...

CITY           SKY/WX    TMP DP  RH WIND       PRES   REMARKS
K.C. INTL      PTSUNNY   32  16  51 SE10      30.36F WCI  24
K.C. DOWNTOWN  CLOUDY    33  18  53 E8        30.38F WCI  26
LEES SUMMIT    CLOUDY    31  19  61 MISG      30.38F
OLATHE - IXD   CLOUDY    32  19  58 SE10      30.36F WCI  24
OLATHE - OJC   CLOUDY    30  18  60 SE8       30.35F WCI  22
LAWRENCE       CLOUDY    32  21  64 SE8       30.36F WCI  25

$$

MOZ001>008-011>017-020>025-030>033-038>040-044>046-053-054-101800-
...NORTHERN AND CENTRAL MISSOURI...

CITY           SKY/WX    TMP DP  RH WIND       PRES   REMARKS
ST. JOSEPH     CLOUDY    30  15  53 SE8       30.38F WCI  22
MOSBY          CLOUDY    32  19  59 SE7       30.41F WCI  26
WARRENSBURG    CLOUDY    32  19  59 SE8       30.40F WCI  25
WHITEMAN AFB   CLOUDY    34  18  53 S8        30.39F WCI  27
CLINTON        CLOUDY    36  19  51 CALM      30.42F
SEDALIA        CLOUDY    33  17  51 S9        30.43F WCI  25
WARSAW         NOT AVBL
CHILLICOTHE      N/A     29  15  56 S7        30.43F WCI  22
KIRKSVILLE     CLOUDY    28  13  53 SE12      30.43F WCI  18

$$

MOZ041-047>049-056>058-063>065-088>090-097-101800-
...EASTERN AND SOUTHERN MISSOURI...

CITY           SKY/WX    TMP DP  RH WIND       PRES   REMARKS
ST. LOUIS INTL CLOUDY    31  14  49 SE10      30.51F WCI  22
SPIRIT OF STL  CLOUDY    31  17  56 SE7       30.51F WCI  24
COLUMBIA       CLOUDY    30  15  53 SE9       30.44F WCI  22
JEFFERSON CITY CLOUDY    30  15  53 SE8       30.47F WCI  22
ROLLA          CLOUDY    29  17  61 S8        30.43F WCI  21
OSAGE BEACH    CLOUDY    31  18  58 SE5       30.45F WCI  26
SPRINGFIELD    CLOUDY    34  18  52 SE10      30.39F WCI  26
BRANSON        PTSUNNY   36  19  51 SE12      30.43F WCI  27
JOPLIN         CLOUDY    39  16  39 S9        30.38F WCI  33
WEST PLAINS    CLOUDY    30  17  58 S12       30.49F WCI  20

$$

IAZ060-094-KSZ022-034>040-054-083-096-NEZ052-066-093-101800-
...KANSAS...SOUTHEAST NEBRASKA AND IOWA...

CITY           SKY/WX    TMP DP  RH WIND       PRES   REMARKS
TOPEKA         PTSUNNY   34  19  54 SE10      30.33F WCI  26
MANHATTAN      CLOUDY    33  17  51 SE7       30.30F WCI  27
EMPORIA        CLOUDY    33  19  56 SE14      30.29F WCI  23
CHANUTE        CLOUDY    36  20  52 S13       30.34F WCI  27
WICHITA        CLOUDY    37  21  52 S17G25    30.25F WCI  27
OMAHA          CLOUDY    26  17  68 SE10      30.34F WCI  16
LINCOLN        CLOUDY    30  16  56 SE10      30.30F WCI  21
FALLS CITY     CLOUDY    31  16  54 SE10      30.34F WCI  22
LAMONI         CLOUDY    27  12  53 SE7       30.36F WCI  19
DES MOINES     SNOW      23  20  88 SE9       30.40F VSB 1/2 WCI  13

$$




USA.gov is the U.S. government's official web portal to all federal, state and local government web resources and services.